Location: Newark
(5.8900°S, 42.6378°W)
Time: 17:48:15
(UTC+00:00)

Courier 1B Rocket - Visible Passes

Search period start: 14 October 2019 00:00
Search period end: 24 October 2019 00:00
Orbit: 920 x 1202 km, 28.2° (Epoch: 14 October)

Date Brightness Start Highest point End Pass type
(mag) Time Alt. Az. Time Alt. Az. Time Alt. Az.
14 Oct 7.5 22:32:00 10° SSW 22:33:34 11° S 22:35:07 10° SSE visible
15 Oct 7.5 21:29:21 10° SSW 21:31:39 11° S 21:33:56 10° SSE visible
15 Oct 7.4 23:23:54 10° SSW 23:25:50 13° S 23:25:50 13° S visible
16 Oct 7.3 22:22:49 10° SSW 22:25:34 12° S 22:28:16 10° SSE visible
17 Oct 7.5 21:21:12 10° SSW 21:23:40 12° S 21:26:06 10° SSE visible
17 Oct 7.1 23:14:24 10° SSW 23:17:41 17° S 23:17:41 17° S visible
18 Oct 7.1 22:13:26 10° SSW 22:17:30 15° SSE 22:20:26 12° SE visible
19 Oct 7.6 00:05:57 10° SW 00:06:48 13° SW 00:06:48 13° SW visible
19 Oct 7.3 21:12:17 10° SSW 21:15:39 13° S 21:18:57 10° SSE visible
19 Oct 6.8 23:04:59 10° SSW 23:09:33 24° S 23:09:33 24° S visible
20 Oct 6.9 22:04:02 10° SSW 22:09:18 20° SSE 22:12:19 16° SE visible
20 Oct 7.3 23:56:45 10° SW 23:58:41 19° SW 23:58:41 19° SW visible
21 Oct 7.2 21:03:02 10° SSW 21:07:32 16° SSE 21:11:56 10° SE visible
21 Oct 6.3 22:55:40 10° SW 23:01:28 34° S 23:01:28 34° S visible
22 Oct 6.6 21:54:40 10° SW 22:00:58 27° SSE 22:04:18 20° ESE visible
22 Oct 7.0 23:47:43 10° SW 23:50:40 26° SW 23:50:40 26° SW visible
23 Oct 7.0 20:53:42 10° SSW 20:59:19 21° SSE 21:04:45 10° ESE visible
23 Oct 5.6 22:46:29 10° SW 22:53:30 52° SSE 22:53:30 52° SSE visible
